sat.trackr.live / text

‹ back to catalog

COSMOS 2534 (758)

NORAD 44299 · 2019-030A

PAYLOAD ACTIVE UNKNOWN

§ Identity

Operator
Country
CIS
Launch date
2019-05-27
Launch site
PLMSC
Launch vehicle
Mass (kg)
RCS (m²)

Purposes: nav

External: N2YO · Heavens-Above · Gunter

§ Orbital elements

Epoch: 2026-09-08T07:03:58.896288Z

Period
675.73 min
Inclination
64.3699°
Eccentricity
0.0012038
Mean motion
2.13102149 rev/d
Perigee alt
19,099.2 km
Apogee alt
19,160.6 km
Semi-major
25,508.0 km
B*
0.0000e+0
RAAN
189.8198°
Arg perigee
275.8196°
Mean anomaly
260.4578°
Rev number
5,669

§ Raw data

COSMOS 2534 (758)1 44299U 19030A   26251.29443167 -.00000019  00000+0  00000+0 0  99922 44299  64.3699 189.8198 0012038 275.8196 260.4578  2.13102149 56694

JSON: /api/v1/satellites/44299 · /tle

For live sub-satellite position, see the globe view (requires WebGL).

§ Visibility from observer

Set your observer location to see the next 7 days of passes ≥ 10°. The values pass through the URL so the page stays shareable.

No JS? Fill the form by hand. The geolocation button needs JavaScript.